Information on these data can be found in provided Readme document
Contact Info: Zachary Fasnacht (zachary.fasnacht@ssaihq.com); Nickolay Krotkov (nickolay.a.krotkov@nasa.gov); Lok Lamsal (lok.lamsal@nasa.gov)

FillValue: -999.
ScaleFactor: 1e15
Units: molecules/cm^2

Date(yyyy-mm-dd),City,Country,LonCenter,LatCenter,BoundingCoordinates,Median,Q1,Q3,Mean,Baseline_Median,Baseline_Q1,Baseline_Q3,Baseline_Mean,NumGoodSamples,NumTotalSamples
2015-01-01,Lome,Togo,1.2254,6.1256,[0.7254 5.6256 1.7254 6.6256],1.245,0.699,2.09,1.668,1.325,0.697,2.284,1.716,196.0,511.0
2015-01-02,Lome,Togo,1.2254,6.1256,[0.7254 5.6256 1.7254 6.6256],1.285,0.714,2.16,1.73,1.275,0.652,2.227,1.678,221.0,504.0
2015-01-03,Lome,Togo,1.2254,6.1256,[0.7254 5.6256 1.7254 6.6256],1.345,0.762,2.176,1.827,1.236,0.646,2.12,1.635,202.0,522.0
2015-01-04,Lome,Togo,1.2254,6.1256,[0.7254 5.6256 1.7254 6.6256],1.362,0.803,2.177,1.832,1.228,0.655,2.105,1.604,221.0,491.0
2015-01-05,Lome,Togo,1.2254,6.1256,[0.7254 5.6256 1.7254 6.6256],1.603,1.114,2.713,2.11,1.332,0.723,2.248,1.686,199.0,520.0
2015-01-06,Lome,Togo,1.2254,6.1256,[0.7254 5.6256 1.7254 6.6256],1.481,0.975,2.526,1.997,1.298,0.681,2.195,1.649,211.0,493.0
2015-01-07,Lome,Togo,1.2254,6.1256,[0.7254 5.6256 1.7254 6.6256],1.492,1.0,2.714,2.1,1.318,0.703,2.226,1.685,202.0,520.0
2015-01-08,Lome,Togo,1.2254,6.1256,[0.7254 5.6256 1.7254 6.6256],1.469,0.983,2.714,2.054,1.298,0.704,2.221,1.677,194.0,507.0
2015-01-09,Lome,Togo,1.2254,6.1256,[0.7254 5.6256 1.7254 6.6256],1.492,1.0,2.714,2.07,1.284,0.667,2.143,1.628,221.0,515.0
2015-01-10,Lome,Togo,1.2254,6.1256,[0.7254 5.6256 1.7254 6.6256],1.492,1.0,2.985,2.114,1.351,0.732,2.315,1.676,201.0,492.0
2015-01-11,Lome,Togo,1.2254,6.1256,[0.7254 5.6256 1.7254 6.6256],1.469,0.973,2.618,2.008,1.304,0.746,2.16,1.611,220.0,469.0
2015-01-12,Lome,Togo,1.2254,6.1256,[0.7254 5.6256 1.7254 6.6256],1.488,0.957,2.59,2.007,1.313,0.731,2.177,1.594,208.0,498.0
2015-01-13,Lome,Togo,1.2254,6.1256,[0.7254 5.6256 1.7254 6.6256],1.463,0.896,2.618,1.969,1.292,0.713,2.131,1.564,216.0,463.0
2015-01-14,Lome,Togo,1.2254,6.1256,[0.7254 5.6256 1.7254 6.6256],1.469,0.957,2.526,1.948,1.289,0.672,2.076,1.513,198.0,496.0
2015-01-15,Lome,Togo,1.2254,6.1256,[0.7254 5.6256 1.7254 6.6256],1.282,0.881,2.449,1.761,1.251,0.649,2.069,1.475,180.0,472.0
2015-01-16,Lome,Togo,1.2254,6.1256,[0.7254 5.6256 1.7254 6.6256],1.208,0.822,2.446,1.663,1.223,0.641,2.041,1.43,196.0,487.0
2015-01-17,Lome,Togo,1.2254,6.1256,[0.7254 5.6256 1.7254 6.6256],1.139,0.629,2.207,1.551,1.22,0.591,2.011,1.424,186.0,484.0
2015-01-18,Lome,Togo,1.2254,6.1256,[0.7254 5.6256 1.7254 6.6256],1.139,0.617,2.231,1.535,1.232,0.627,1.987,1.434,207.0,479.0
2015-01-19,Lome,Togo,1.2254,6.1256,[0.7254 5.6256 1.7254 6.6256],1.117,0.557,2.205,1.496,1.24,0.624,2.075,1.461,188.0,497.0
2015-01-20,Lome,Togo,1.2254,6.1256,[0.7254 5.6256 1.7254 6.6256],1.122,0.525,2.099,1.459,1.191,0.557,2.066,1.419,207.0,466.0
2015-01-21,Lome,Togo,1.2254,6.1256,[0.7254 5.6256 1.7254 6.6256],1.131,0.525,2.059,1.401,1.225,0.599,2.05,1.442,186.0,494.0
2015-01-22,Lome,Togo,1.2254,6.1256,[0.7254 5.6256 1.7254 6.6256],1.165,0.49,1.821,1.31,1.202,0.546,1.992,1.401,198.0,467.0
2015-01-23,Lome,Togo,1.2254,6.1256,[0.7254 5.6256 1.7254 6.6256],1.165,0.422,1.777,1.268,1.21,0.581,1.983,1.386,184.0,493.0
2015-01-24,Lome,Togo,1.2254,6.1256,[0.7254 5.6256 1.7254 6.6256],1.038,0.228,1.701,1.115,1.196,0.563,2.043,1.393,169.0,480.0
2015-01-25,Lome,Togo,1.2254,6.1256,[0.7254 5.6256 1.7254 6.6256],1.004,0.206,1.701,1.084,1.076,0.522,1.949,1.314,196.0,516.0
2015-01-26,Lome,Togo,1.2254,6.1256,[0.7254 5.6256 1.7254 6.6256],1.004,0.202,1.578,1.059,1.067,0.518,1.947,1.322,204.0,523.0
2015-01-27,Lome,Togo,1.2254,6.1256,[0.7254 5.6256 1.7254 6.6256],0.862,0.186,1.528,1.006,0.947,0.435,1.784,1.192,220.0,502.0
2015-01-28,Lome,Togo,1.2254,6.1256,[0.7254 5.6256 1.7254 6.6256],0.724,0.186,1.501,0.94,0.921,0.443,1.767,1.175,215.0,527.0
2015-01-29,Lome,Togo,1.2254,6.1256,[0.7254 5.6256 1.7254 6.6256],0.71,0.211,1.483,0.916,0.861,0.418,1.687,1.132,222.0,493.0
2015-01-30,Lome,Togo,1.2254,6.1256,[0.7254 5.6256 1.7254 6.6256],0.724,0.206,1.483,0.917,0.855,0.397,1.612,1.092,207.0,527.0
2015-01-31,Lome,Togo,1.2254,6.1256,[0.7254 5.6256 1.7254 6.6256],0.632,0.154,1.462,0.827,0.804,0.344,1.59,1.037,179.0,502.0
2015-02-01,Lome,Togo,1.2254,6.1256,[0.7254 5.6256 1.7254 6.6256],0.558,0.152,1.422,0.801,0.784,0.354,1.502,0.997,197.0,515.0
2015-02-02,Lome,Togo,1.2254,6.1256,[0.7254 5.6256 1.7254 6.6256],0.525,0.152,1.399,0.755,0.701,0.31,1.434,0.949,194.0,509.0
2015-02-03,Lome,Togo,1.2254,6.1256,[0.7254 5.6256 1.7254 6.6256],0.621,0.182,1.278,0.754,0.708,0.315,1.365,0.905,216.0,503.0
2015-02-04,Lome,Togo,1.2254,6.1256,[0.7254 5.6256 1.7254 6.6256],0.573,0.14,1.223,0.703,0.685,0.298,1.281,0.86,213.0,521.0
2015-02-05,Lome,Togo,1.2254,6.1256,[0.7254 5.6256 1.7254 6.6256],0.558,0.159,1.165,0.698,0.644,0.284,1.201,0.791,228.0,491.0
2015-02-06,Lome,Togo,1.2254,6.1256,[0.7254 5.6256 1.7254 6.6256],0.452,0.133,0.889,0.543,0.618,0.289,1.145,0.76,206.0,521.0
2015-02-07,Lome,Togo,1.2254,6.1256,[0.7254 5.6256 1.7254 6.6256],0.434,0.039,0.86,0.49,0.581,0.25,1.067,0.72,211.0,494.0
2015-02-08,Lome,Togo,1.2254,6.1256,[0.7254 5.6256 1.7254 6.6256],0.451,0.126,0.862,0.535,0.568,0.244,1.052,0.695,234.0,521.0
2015-02-09,Lome,Togo,1.2254,6.1256,[0.7254 5.6256 1.7254 6.6256],0.451,0.098,0.86,0.515,0.585,0.248,1.057,0.697,223.0,509.0
2015-02-10,Lome,Togo,1.2254,6.1256,[0.7254 5.6256 1.7254 6.6256],0.451,0.068,0.868,0.547,0.57,0.235,1.052,0.684,218.0,516.0
2015-02-11,Lome,Togo,1.2254,6.1256,[0.7254 5.6256 1.7254 6.6256],0.451,0.039,0.886,0.564,0.591,0.257,1.08,0.716,202.0,491.0
2015-02-12,Lome,Togo,1.2254,6.1256,[0.7254 5.6256 1.7254 6.6256],0.452,0.068,0.886,0.574,0.558,0.24,1.033,0.685,203.0,468.0
2015-02-13,Lome,Togo,1.2254,6.1256,[0.7254 5.6256 1.7254 6.6256],0.483,0.027,0.889,0.565,0.589,0.251,1.065,0.714,197.0,495.0
2015-02-14,Lome,Togo,1.2254,6.1256,[0.7254 5.6256 1.7254 6.6256],0.558,0.068,0.886,0.585,0.602,0.259,1.069,0.713,210.0,460.0
2015-02-15,Lome,Togo,1.2254,6.1256,[0.7254 5.6256 1.7254 6.6256],0.618,0.213,0.904,0.621,0.582,0.261,1.002,0.692,205.0,496.0
2015-02-16,Lome,Togo,1.2254,6.1256,[0.7254 5.6256 1.7254 6.6256],0.629,0.253,0.904,0.634,0.581,0.265,1.005,0.698,172.0,474.0
2015-02-17,Lome,Togo,1.2254,6.1256,[0.7254 5.6256 1.7254 6.6256],0.646,0.249,0.951,0.65,0.593,0.275,1.018,0.695,188.0,488.0
2015-02-18,Lome,Togo,1.2254,6.1256,[0.7254 5.6256 1.7254 6.6256],0.618,0.203,0.957,0.652,0.587,0.239,1.003,0.686,185.0,484.0
2015-02-19,Lome,Togo,1.2254,6.1256,[0.7254 5.6256 1.7254 6.6256],0.618,0.151,1.03,0.682,0.569,0.213,0.988,0.668,195.0,475.0
2015-02-20,Lome,Togo,1.2254,6.1256,[0.7254 5.6256 1.7254 6.6256],0.646,0.116,1.061,0.692,0.574,0.205,1.012,0.669,185.0,491.0
2015-02-21,Lome,Togo,1.2254,6.1256,[0.7254 5.6256 1.7254 6.6256],0.65,0.201,1.064,0.728,0.564,0.216,0.985,0.664,202.0,459.0
2015-02-22,Lome,Togo,1.2254,6.1256,[0.7254 5.6256 1.7254 6.6256],0.701,0.298,1.173,0.823,0.562,0.211,1.005,0.671,192.0,489.0
2015-02-23,Lome,Togo,1.2254,6.1256,[0.7254 5.6256 1.7254 6.6256],0.618,0.147,0.962,0.643,0.549,0.187,0.98,0.647,179.0,462.0
2015-02-24,Lome,Togo,1.2254,6.1256,[0.7254 5.6256 1.7254 6.6256],0.635,0.165,1.002,0.676,0.548,0.175,0.992,0.653,198.0,488.0
2015-02-25,Lome,Togo,1.2254,6.1256,[0.7254 5.6256 1.7254 6.6256],0.55,0.198,0.918,0.635,0.53,0.181,0.996,0.649,192.0,474.0
2015-02-26,Lome,Togo,1.2254,6.1256,[0.7254 5.6256 1.7254 6.6256],0.55,0.198,0.962,0.65,0.529,0.175,0.973,0.635,218.0,510.0
2015-02-27,Lome,Togo,1.2254,6.1256,[0.7254 5.6256 1.7254 6.6256],0.536,0.171,0.9,0.624,0.552,0.169,1.004,0.659,230.0,516.0
2015-02-28,Lome,Togo,1.2254,6.1256,[0.7254 5.6256 1.7254 6.6256],0.529,0.167,0.899,0.604,0.542,0.178,0.995,0.629,241.0,493.0
2015-03-01,Lome,Togo,1.2254,6.1256,[0.7254 5.6256 1.7254 6.6256],0.509,0.114,0.923,0.59,0.547,0.151,1.012,0.625,230.0,520.0
2015-03-02,Lome,Togo,1.2254,6.1256,[0.7254 5.6256 1.7254 6.6256],0.515,0.116,0.9,0.585,0.561,0.156,1.007,0.633,238.0,484.0
2015-03-03,Lome,Togo,1.2254,6.1256,[0.7254 5.6256 1.7254 6.6256],0.515,0.116,0.9,0.585,0.54,0.155,0.992,0.625,238.0,517.0
2015-03-04,Lome,Togo,1.2254,6.1256,[0.7254 5.6256 1.7254 6.6256],0.509,0.116,0.869,0.554,0.54,0.16,1.012,0.634,219.0,493.0
2015-03-05,Lome,Togo,1.2254,6.1256,[0.7254 5.6256 1.7254 6.6256],0.456,0.102,0.863,0.542,0.53,0.156,0.994,0.62,232.0,505.0
2015-03-06,Lome,Togo,1.2254,6.1256,[0.7254 5.6256 1.7254 6.6256],0.456,0.148,0.863,0.521,0.531,0.163,0.992,0.618,210.0,503.0
2015-03-07,Lome,Togo,1.2254,6.1256,[0.7254 5.6256 1.7254 6.6256],0.451,0.099,0.863,0.505,0.523,0.151,0.979,0.612,229.0,498.0
2015-03-08,Lome,Togo,1.2254,6.1256,[0.7254 5.6256 1.7254 6.6256],0.405,0.072,0.807,0.459,0.515,0.149,0.977,0.601,233.0,516.0
2015-03-09,Lome,Togo,1.2254,6.1256,[0.7254 5.6256 1.7254 6.6256],0.405,0.072,0.807,0.459,0.514,0.144,0.986,0.6,233.0,485.0
2015-03-10,Lome,Togo,1.2254,6.1256,[0.7254 5.6256 1.7254 6.6256],0.458,0.148,0.846,0.538,0.531,0.157,0.992,0.605,211.0,514.0
2015-03-11,Lome,Togo,1.2254,6.1256,[0.7254 5.6256 1.7254 6.6256],0.46,0.15,0.846,0.518,0.523,0.147,0.967,0.586,180.0,487.0
2015-03-12,Lome,Togo,1.2254,6.1256,[0.7254 5.6256 1.7254 6.6256],0.508,0.148,0.864,0.56,0.531,0.154,0.981,0.588,200.0,516.0
2015-03-13,Lome,Togo,1.2254,6.1256,[0.7254 5.6256 1.7254 6.6256],0.499,0.148,0.838,0.515,0.513,0.145,0.983,0.583,191.0,505.0
2015-03-14,Lome,Togo,1.2254,6.1256,[0.7254 5.6256 1.7254 6.6256],0.547,0.15,0.849,0.588,0.524,0.155,0.983,0.601,198.0,514.0
2015-03-15,Lome,Togo,1.2254,6.1256,[0.7254 5.6256 1.7254 6.6256],0.567,0.172,0.864,0.614,0.519,0.147,0.982,0.599,186.0,491.0
2015-03-16,Lome,Togo,1.2254,6.1256,[0.7254 5.6256 1.7254 6.6256],0.547,0.15,0.864,0.604,0.51,0.137,0.981,0.601,204.0,467.0
2015-03-17,Lome,Togo,1.2254,6.1256,[0.7254 5.6256 1.7254 6.6256],0.543,0.148,0.857,0.613,0.529,0.14,1.0,0.616,196.0,495.0
2015-03-18,Lome,Togo,1.2254,6.1256,[0.7254 5.6256 1.7254 6.6256],0.543,0.148,0.857,0.613,0.553,0.134,0.989,0.606,196.0,461.0
2015-03-19,Lome,Togo,1.2254,6.1256,[0.7254 5.6256 1.7254 6.6256],0.54,0.15,0.899,0.645,0.498,0.114,0.958,0.579,181.0,497.0
2015-03-20,Lome,Togo,1.2254,6.1256,[0.7254 5.6256 1.7254 6.6256],0.542,0.191,0.899,0.626,0.521,0.137,0.964,0.593,167.0,476.0
2015-03-21,Lome,Togo,1.2254,6.1256,[0.7254 5.6256 1.7254 6.6256],0.514,0.151,0.849,0.607,0.505,0.125,0.931,0.581,172.0,491.0
2015-03-22,Lome,Togo,1.2254,6.1256,[0.7254 5.6256 1.7254 6.6256],0.514,0.208,0.849,0.62,0.53,0.144,0.953,0.601,165.0,488.0
2015-03-23,Lome,Togo,1.2254,6.1256,[0.7254 5.6256 1.7254 6.6256],0.502,0.132,0.842,0.582,0.535,0.128,0.936,0.597,167.0,479.0
2015-03-24,Lome,Togo,1.2254,6.1256,[0.7254 5.6256 1.7254 6.6256],0.502,0.132,0.842,0.582,0.53,0.14,0.93,0.599,167.0,493.0
2015-03-25,Lome,Togo,1.2254,6.1256,[0.7254 5.6256 1.7254 6.6256],0.502,0.132,0.842,0.582,0.534,0.14,0.94,0.604,167.0,463.0
2015-03-26,Lome,Togo,1.2254,6.1256,[0.7254 5.6256 1.7254 6.6256],0.501,0.132,0.842,0.578,0.545,0.143,0.947,0.604,163.0,492.0
2015-03-27,Lome,Togo,1.2254,6.1256,[0.7254 5.6256 1.7254 6.6256],0.419,0.132,0.685,0.483,0.528,0.148,0.893,0.588,148.0,463.0
2015-03-28,Lome,Togo,1.2254,6.1256,[0.7254 5.6256 1.7254 6.6256],0.424,0.132,0.745,0.504,0.531,0.171,0.92,0.601,169.0,488.0
2015-03-29,Lome,Togo,1.2254,6.1256,[0.7254 5.6256 1.7254 6.6256],0.419,0.132,0.688,0.444,0.541,0.168,0.895,0.581,167.0,478.0
2015-03-30,Lome,Togo,1.2254,6.1256,[0.7254 5.6256 1.7254 6.6256],0.419,0.15,0.745,0.483,0.554,0.17,0.907,0.593,196.0,515.0
2015-03-31,Lome,Togo,1.2254,6.1256,[0.7254 5.6256 1.7254 6.6256],0.424,0.185,0.817,0.499,0.553,0.186,0.942,0.605,201.0,526.0
2015-04-01,Lome,Togo,1.2254,6.1256,[0.7254 5.6256 1.7254 6.6256],0.478,0.132,0.893,0.509,0.535,0.159,0.926,0.572,220.0,501.0
2015-04-02,Lome,Togo,1.2254,6.1256,[0.7254 5.6256 1.7254 6.6256],0.478,0.132,0.893,0.509,0.534,0.166,0.927,0.587,220.0,528.0
2015-04-03,Lome,Togo,1.2254,6.1256,[0.7254 5.6256 1.7254 6.6256],0.431,0.132,0.745,0.49,0.545,0.193,0.9,0.594,236.0,494.0
2015-04-04,Lome,Togo,1.2254,6.1256,[0.7254 5.6256 1.7254 6.6256],0.424,0.077,0.745,0.485,0.549,0.193,0.905,0.595,218.0,528.0
2015-04-05,Lome,Togo,1.2254,6.1256,[0.7254 5.6256 1.7254 6.6256],0.419,0.047,0.745,0.472,0.551,0.195,0.925,0.601,212.0,505.0
2015-04-06,Lome,Togo,1.2254,6.1256,[0.7254 5.6256 1.7254 6.6256],0.424,0.061,0.745,0.48,0.54,0.18,0.921,0.597,228.0,519.0
2015-04-07,Lome,Togo,1.2254,6.1256,[0.7254 5.6256 1.7254 6.6256],0.431,0.123,0.745,0.505,0.546,0.206,0.941,0.611,208.0,518.0
2015-04-08,Lome,Togo,1.2254,6.1256,[0.7254 5.6256 1.7254 6.6256],0.438,0.154,0.741,0.497,0.539,0.2,0.932,0.598,236.0,513.0
2015-04-09,Lome,Togo,1.2254,6.1256,[0.7254 5.6256 1.7254 6.6256],0.468,0.172,0.745,0.502,0.549,0.22,0.951,0.611,258.0,529.0
2015-04-10,Lome,Togo,1.2254,6.1256,[0.7254 5.6256 1.7254 6.6256],0.468,0.172,0.745,0.506,0.533,0.205,0.94,0.603,278.0,500.0
2015-04-11,Lome,Togo,1.2254,6.1256,[0.7254 5.6256 1.7254 6.6256],0.506,0.169,0.856,0.538,0.551,0.213,0.969,0.62,257.0,529.0
2015-04-12,Lome,Togo,1.2254,6.1256,[0.7254 5.6256 1.7254 6.6256],0.408,0.043,0.728,0.453,0.525,0.176,0.933,0.598,237.0,502.0
2015-04-13,Lome,Togo,1.2254,6.1256,[0.7254 5.6256 1.7254 6.6256],0.435,0.047,0.735,0.473,0.528,0.19,0.931,0.604,253.0,525.0
2015-04-14,Lome,Togo,1.2254,6.1256,[0.7254 5.6256 1.7254 6.6256],0.44,0.056,0.714,0.457,0.525,0.18,0.932,0.599,242.0,511.0
2015-04-15,Lome,Togo,1.2254,6.1256,[0.7254 5.6256 1.7254 6.6256],0.44,0.056,0.714,0.445,0.509,0.189,0.88,0.581,242.0,516.0
2015-04-16,Lome,Togo,1.2254,6.1256,[0.7254 5.6256 1.7254 6.6256],0.438,0.056,0.671,0.429,0.519,0.2,0.892,0.594,223.0,494.0
2015-04-17,Lome,Togo,1.2254,6.1256,[0.7254 5.6256 1.7254 6.6256],0.408,0.047,0.668,0.406,0.499,0.162,0.869,0.562,243.0,470.0
2015-04-18,Lome,Togo,1.2254,6.1256,[0.7254 5.6256 1.7254 6.6256],0.408,0.02,0.714,0.414,0.505,0.151,0.9,0.575,230.0,494.0
2015-04-19,Lome,Togo,1.2254,6.1256,[0.7254 5.6256 1.7254 6.6256],0.408,0.02,0.714,0.416,0.5,0.132,0.876,0.562,231.0,458.0
2015-04-20,Lome,Togo,1.2254,6.1256,[0.7254 5.6256 1.7254 6.6256],0.438,0.042,0.746,0.432,0.497,0.126,0.882,0.556,228.0,492.0
2015-04-21,Lome,Togo,1.2254,6.1256,[0.7254 5.6256 1.7254 6.6256],0.382,0.02,0.714,0.403,0.475,0.114,0.876,0.55,204.0,466.0
2015-04-22,Lome,Togo,1.2254,6.1256,[0.7254 5.6256 1.7254 6.6256],0.382,0.02,0.735,0.416,0.483,0.112,0.884,0.553,235.0,481.0
2015-04-23,Lome,Togo,1.2254,6.1256,[0.7254 5.6256 1.7254 6.6256],0.353,0.019,0.75,0.413,0.474,0.105,0.892,0.553,226.0,480.0
2015-04-24,Lome,Togo,1.2254,6.1256,[0.7254 5.6256 1.7254 6.6256],0.345,0.019,0.75,0.405,0.464,0.11,0.845,0.536,224.0,476.0
2015-04-25,Lome,Togo,1.2254,6.1256,[0.7254 5.6256 1.7254 6.6256],0.331,-0.019,0.75,0.375,0.475,0.126,0.868,0.545,224.0,491.0
2015-04-26,Lome,Togo,1.2254,6.1256,[0.7254 5.6256 1.7254 6.6256],0.348,-0.018,0.764,0.412,0.467,0.118,0.87,0.543,240.0,461.0
2015-04-27,Lome,Togo,1.2254,6.1256,[0.7254 5.6256 1.7254 6.6256],0.44,0.034,0.897,0.48,0.513,0.123,0.91,0.566,222.0,489.0
2015-04-28,Lome,Togo,1.2254,6.1256,[0.7254 5.6256 1.7254 6.6256],0.44,0.034,0.864,0.466,0.501,0.096,0.9,0.55,195.0,462.0
2015-04-29,Lome,Togo,1.2254,6.1256,[0.7254 5.6256 1.7254 6.6256],0.345,-0.018,0.848,0.432,0.473,0.093,0.893,0.546,207.0,490.0
2015-04-30,Lome,Togo,1.2254,6.1256,[0.7254 5.6256 1.7254 6.6256],0.416,0.022,0.822,0.446,0.518,0.101,0.91,0.568,191.0,474.0
2015-05-01,Lome,Togo,1.2254,6.1256,[0.7254 5.6256 1.7254 6.6256],0.416,0.034,0.83,0.451,0.516,0.132,0.943,0.57,220.0,510.0
2015-05-02,Lome,Togo,1.2254,6.1256,[0.7254 5.6256 1.7254 6.6256],0.416,0.034,0.821,0.462,0.542,0.154,0.985,0.594,224.0,516.0
2015-05-03,Lome,Togo,1.2254,6.1256,[0.7254 5.6256 1.7254 6.6256],0.387,0.022,0.764,0.437,0.503,0.125,0.928,0.568,242.0,496.0
2015-05-04,Lome,Togo,1.2254,6.1256,[0.7254 5.6256 1.7254 6.6256],0.372,0.022,0.764,0.434,0.503,0.117,0.934,0.568,247.0,523.0
2015-05-05,Lome,Togo,1.2254,6.1256,[0.7254 5.6256 1.7254 6.6256],0.419,0.041,0.793,0.462,0.519,0.152,0.936,0.58,260.0,486.0
2015-05-06,Lome,Togo,1.2254,6.1256,[0.7254 5.6256 1.7254 6.6256],0.461,0.061,0.842,0.484,0.526,0.157,0.951,0.585,251.0,522.0
2015-05-07,Lome,Togo,1.2254,6.1256,[0.7254 5.6256 1.7254 6.6256],0.461,0.061,0.812,0.471,0.528,0.154,0.944,0.581,217.0,497.0
2015-05-08,Lome,Togo,1.2254,6.1256,[0.7254 5.6256 1.7254 6.6256],0.48,0.069,0.821,0.47,0.556,0.164,0.961,0.591,220.0,513.0
2015-05-09,Lome,Togo,1.2254,6.1256,[0.7254 5.6256 1.7254 6.6256],0.519,0.061,0.842,0.496,0.585,0.169,0.99,0.62,215.0,509.0
2015-05-10,Lome,Togo,1.2254,6.1256,[0.7254 5.6256 1.7254 6.6256],0.536,0.09,0.883,0.522,0.565,0.178,1.017,0.631,213.0,504.0
2015-05-11,Lome,Togo,1.2254,6.1256,[0.7254 5.6256 1.7254 6.6256],0.533,0.086,0.842,0.489,0.577,0.17,1.02,0.629,200.0,522.0
2015-05-12,Lome,Togo,1.2254,6.1256,[0.7254 5.6256 1.7254 6.6256],0.536,0.098,0.842,0.517,0.542,0.156,0.986,0.608,218.0,493.0
2015-05-13,Lome,Togo,1.2254,6.1256,[0.7254 5.6256 1.7254 6.6256],0.533,0.069,0.842,0.514,0.528,0.157,0.98,0.609,208.0,522.0
2015-05-14,Lome,Togo,1.2254,6.1256,[0.7254 5.6256 1.7254 6.6256],0.514,0.098,0.836,0.523,0.523,0.154,0.957,0.599,199.0,494.0
2015-05-15,Lome,Togo,1.2254,6.1256,[0.7254 5.6256 1.7254 6.6256],0.489,0.07,0.836,0.526,0.5,0.131,0.941,0.591,219.0,523.0
2015-05-16,Lome,Togo,1.2254,6.1256,[0.7254 5.6256 1.7254 6.6256],0.495,0.061,0.836,0.529,0.5,0.122,0.931,0.595,190.0,507.0
2015-05-17,Lome,Togo,1.2254,6.1256,[0.7254 5.6256 1.7254 6.6256],0.514,0.225,0.842,0.558,0.503,0.147,0.945,0.6,192.0,515.0
2015-05-18,Lome,Togo,1.2254,6.1256,[0.7254 5.6256 1.7254 6.6256],0.528,0.282,0.891,0.599,0.548,0.192,0.97,0.632,171.0,490.0
2015-05-19,Lome,Togo,1.2254,6.1256,[0.7254 5.6256 1.7254 6.6256],0.514,0.252,0.891,0.595,0.554,0.171,0.965,0.629,173.0,468.0
2015-05-20,Lome,Togo,1.2254,6.1256,[0.7254 5.6256 1.7254 6.6256],0.489,0.223,0.907,0.581,0.548,0.171,0.979,0.625,160.0,497.0
2015-05-21,Lome,Togo,1.2254,6.1256,[0.7254 5.6256 1.7254 6.6256],0.489,0.191,0.909,0.573,0.545,0.161,0.968,0.611,163.0,462.0
2015-05-22,Lome,Togo,1.2254,6.1256,[0.7254 5.6256 1.7254 6.6256],0.489,0.191,0.909,0.573,0.544,0.161,0.966,0.606,163.0,497.0
2015-05-23,Lome,Togo,1.2254,6.1256,[0.7254 5.6256 1.7254 6.6256],0.514,0.194,1.034,0.622,0.542,0.146,1.001,0.623,151.0,471.0
2015-05-24,Lome,Togo,1.2254,6.1256,[0.7254 5.6256 1.7254 6.6256],0.512,0.194,1.016,0.609,0.517,0.122,0.983,0.599,138.0,486.0
2015-05-25,Lome,Togo,1.2254,6.1256,[0.7254 5.6256 1.7254 6.6256],0.489,0.194,1.048,0.619,0.488,0.097,0.967,0.588,126.0,483.0
2015-05-26,Lome,Togo,1.2254,6.1256,[0.7254 5.6256 1.7254 6.6256],0.489,0.194,1.048,0.622,0.479,0.103,0.966,0.593,123.0,474.0
2015-05-27,Lome,Togo,1.2254,6.1256,[0.7254 5.6256 1.7254 6.6256],0.447,0.136,1.048,0.598,0.506,0.124,1.007,0.61,107.0,490.0
2015-05-28,Lome,Togo,1.2254,6.1256,[0.7254 5.6256 1.7254 6.6256],0.447,0.129,1.048,0.589,0.516,0.092,1.021,0.615,109.0,460.0
2015-05-29,Lome,Togo,1.2254,6.1256,[0.7254 5.6256 1.7254 6.6256],0.491,0.136,1.309,0.657,0.538,0.132,1.031,0.623,88.0,488.0
2015-05-30,Lome,Togo,1.2254,6.1256,[0.7254 5.6256 1.7254 6.6256],0.324,0.157,0.724,0.492,0.461,0.126,0.936,0.569,74.0,461.0
2015-05-31,Lome,Togo,1.2254,6.1256,[0.7254 5.6256 1.7254 6.6256],0.324,0.157,0.724,0.492,0.459,0.099,0.918,0.554,74.0,491.0
2015-06-01,Lome,Togo,1.2254,6.1256,[0.7254 5.6256 1.7254 6.6256],0.324,0.157,0.79,0.505,0.47,0.112,0.908,0.55,52.0,476.0
2015-06-02,Lome,Togo,1.2254,6.1256,[0.7254 5.6256 1.7254 6.6256],0.324,0.157,0.79,0.505,0.485,0.136,0.903,0.552,52.0,513.0
2015-06-03,Lome,Togo,1.2254,6.1256,[0.7254 5.6256 1.7254 6.6256],0.325,0.166,0.79,0.508,0.467,0.133,0.905,0.546,47.0,517.0
2015-06-04,Lome,Togo,1.2254,6.1256,[0.7254 5.6256 1.7254 6.6256],0.324,0.157,0.79,0.497,0.492,0.139,0.905,0.571,49.0,494.0
2015-06-05,Lome,Togo,1.2254,6.1256,[0.7254 5.6256 1.7254 6.6256],0.325,0.166,0.79,0.511,0.497,0.15,0.92,0.583,50.0,521.0
2015-06-06,Lome,Togo,1.2254,6.1256,[0.7254 5.6256 1.7254 6.6256],0.361,0.166,0.705,0.483,0.495,0.153,0.892,0.581,59.0,486.0
2015-06-07,Lome,Togo,1.2254,6.1256,[0.7254 5.6256 1.7254 6.6256],0.324,0.157,0.556,0.398,0.443,0.049,0.81,0.5,49.0,519.0
2015-06-08,Lome,Togo,1.2254,6.1256,[0.7254 5.6256 1.7254 6.6256],0.324,0.157,0.556,0.396,0.452,0.054,0.81,0.505,50.0,492.0
2015-06-09,Lome,Togo,1.2254,6.1256,[0.7254 5.6256 1.7254 6.6256],0.321,0.118,0.556,0.346,0.467,0.053,0.806,0.492,65.0,505.0
2015-06-10,Lome,Togo,1.2254,6.1256,[0.7254 5.6256 1.7254 6.6256],0.324,0.118,0.556,0.333,0.44,0.048,0.787,0.46,78.0,504.0
2015-06-11,Lome,Togo,1.2254,6.1256,[0.7254 5.6256 1.7254 6.6256],0.324,0.118,0.556,0.336,0.437,0.069,0.782,0.464,76.0,501.0
2015-06-12,Lome,Togo,1.2254,6.1256,[0.7254 5.6256 1.7254 6.6256],0.324,0.118,0.556,0.353,0.43,0.064,0.769,0.449,92.0,517.0
2015-06-13,Lome,Togo,1.2254,6.1256,[0.7254 5.6256 1.7254 6.6256],0.324,0.118,0.556,0.353,0.374,0.066,0.777,0.454,92.0,488.0
2015-06-14,Lome,Togo,1.2254,6.1256,[0.7254 5.6256 1.7254 6.6256],0.361,0.031,0.705,0.388,0.388,0.059,0.815,0.473,77.0,516.0
2015-06-15,Lome,Togo,1.2254,6.1256,[0.7254 5.6256 1.7254 6.6256],0.361,0.031,0.705,0.388,0.367,0.043,0.806,0.466,77.0,489.0
2015-06-16,Lome,Togo,1.2254,6.1256,[0.7254 5.6256 1.7254 6.6256],0.361,-0.087,0.561,0.295,0.388,0.058,0.765,0.467,81.0,518.0
2015-06-17,Lome,Togo,1.2254,6.1256,[0.7254 5.6256 1.7254 6.6256],0.508,0.065,0.799,0.469,0.403,0.061,0.792,0.484,96.0,504.0
2015-06-18,Lome,Togo,1.2254,6.1256,[0.7254 5.6256 1.7254 6.6256],0.472,-0.016,0.799,0.463,0.411,0.064,0.796,0.497,110.0,512.0
2015-06-19,Lome,Togo,1.2254,6.1256,[0.7254 5.6256 1.7254 6.6256],0.497,0.05,0.799,0.474,0.401,0.052,0.778,0.474,108.0,488.0
2015-06-20,Lome,Togo,1.2254,6.1256,[0.7254 5.6256 1.7254 6.6256],0.383,-0.02,0.774,0.429,0.378,0.072,0.789,0.478,109.0,467.0
2015-06-21,Lome,Togo,1.2254,6.1256,[0.7254 5.6256 1.7254 6.6256],0.383,-0.112,0.831,0.442,0.361,0.046,0.775,0.457,100.0,494.0
2015-06-22,Lome,Togo,1.2254,6.1256,[0.7254 5.6256 1.7254 6.6256],0.383,-0.112,0.831,0.442,0.448,0.098,0.823,0.503,100.0,460.0
2015-06-23,Lome,Togo,1.2254,6.1256,[0.7254 5.6256 1.7254 6.6256],0.383,-0.178,0.831,0.444,0.45,0.082,0.821,0.498,97.0,495.0
2015-06-24,Lome,Togo,1.2254,6.1256,[0.7254 5.6256 1.7254 6.6256],0.48,-0.016,0.823,0.456,0.462,0.102,0.819,0.498,86.0,470.0
2015-06-25,Lome,Togo,1.2254,6.1256,[0.7254 5.6256 1.7254 6.6256],0.491,0.065,0.831,0.523,0.512,0.126,0.864,0.539,90.0,483.0
2015-06-26,Lome,Togo,1.2254,6.1256,[0.7254 5.6256 1.7254 6.6256],0.491,0.065,0.831,0.523,0.491,0.098,0.838,0.525,90.0,477.0
2015-06-27,Lome,Togo,1.2254,6.1256,[0.7254 5.6256 1.7254 6.6256],0.497,0.065,0.831,0.529,0.484,0.12,0.827,0.535,72.0,472.0
2015-06-28,Lome,Togo,1.2254,6.1256,[0.7254 5.6256 1.7254 6.6256],0.497,0.067,0.831,0.527,0.467,0.136,0.823,0.524,74.0,489.0
2015-06-29,Lome,Togo,1.2254,6.1256,[0.7254 5.6256 1.7254 6.6256],0.491,0.141,0.831,0.555,0.472,0.151,0.828,0.54,78.0,460.0
2015-06-30,Lome,Togo,1.2254,6.1256,[0.7254 5.6256 1.7254 6.6256],0.491,0.141,0.831,0.555,0.469,0.162,0.801,0.532,78.0,489.0
2015-07-01,Lome,Togo,1.2254,6.1256,[0.7254 5.6256 1.7254 6.6256],0.392,0.168,0.802,0.504,0.43,0.158,0.79,0.498,92.0,461.0
2015-07-02,Lome,Togo,1.2254,6.1256,[0.7254 5.6256 1.7254 6.6256],0.367,0.144,0.516,0.431,0.418,0.132,0.716,0.474,112.0,489.0
2015-07-03,Lome,Togo,1.2254,6.1256,[0.7254 5.6256 1.7254 6.6256],0.367,0.144,0.516,0.43,0.412,0.155,0.746,0.475,95.0,476.0
2015-07-04,Lome,Togo,1.2254,6.1256,[0.7254 5.6256 1.7254 6.6256],0.367,0.144,0.553,0.447,0.405,0.16,0.709,0.461,106.0,512.0
2015-07-05,Lome,Togo,1.2254,6.1256,[0.7254 5.6256 1.7254 6.6256],0.371,0.168,0.669,0.512,0.391,0.162,0.715,0.469,125.0,515.0
2015-07-06,Lome,Togo,1.2254,6.1256,[0.7254 5.6256 1.7254 6.6256],0.368,0.168,0.685,0.504,0.417,0.177,0.731,0.489,143.0,491.0
2015-07-07,Lome,Togo,1.2254,6.1256,[0.7254 5.6256 1.7254 6.6256],0.368,0.168,0.685,0.503,0.405,0.164,0.712,0.478,144.0,518.0
2015-07-08,Lome,Togo,1.2254,6.1256,[0.7254 5.6256 1.7254 6.6256],0.368,0.207,0.687,0.522,0.403,0.176,0.714,0.482,148.0,484.0